Fitchburg, MA

7:34 PM EST on January 23, 2018 (GMT -0500)
Fitchburg Municipal

Weather History for KFIT - January, 2013

Change the Weather History Date:

Friday, January 4, 2013

  Actual Average (KORH) Record (KORH)
Temperature  
Mean Temperature 28 °F -  
Max Temperature 37 °F 32 °F 60 °F (1950)
Min Temperature 19 °F 18 °F -8 °F (1981)
Degree Days  
Heating Degree Days 37    
Moisture  
Dew Point 17 °F    
Average Humidity 57    
Maximum Humidity 77    
Minimum Humidity 50    
Precipitation  
Precipitation 0.00 in - - ()
Sea Level Pressure  
Sea Level Pressure 29.89 in    
Wind  
Wind Speed 10 mph (WSW)    
Max Wind Speed 17 mph    
Max Gust Speed 28 mph    
Visibility 10 miles    
Events      
Averages and records for this station are not official NWS values.
T = Trace of Precipitation, MM = Missing Value Source: NWS Daily Summary

Daily Weather History Graph

Daily Weather History Graph

Search for Another Location

Airport or City:

Trip Planner

Search our weather history database for the weather conditions in past years. The results will help you decide how hot, cold, wet, or windy it might be!

Date:

Astronomy

Jan. 04, 2013 Rise Set
Actual Time 7:16 AM EST 4:27 PM EST
Civil Twilight 6:45 AM EST 4:59 PM EST
Nautical Twilight 6:09 AM EST 5:34 PM EST
Astronomical Twilight 5:35 AM EST 6:08 PM EST
Moon No Moon Rise 10:48 AM EST (1/4)
Length of Visible Light 10h 14m
Length of Day
9h 10m
Waning Gibbous, 55% of the Moon is Illuminated
Jan 4
Waning Gibbous
Jan 4
Last Quarter
Jan 11
New
Jan 18
First Quarter
Jan 26
Full

Hourly Weather History & Observations

Time (EST) Temp. Windchill Dew Point Humidity Pressure Visibility Wind Dir Wind Speed Gust Speed Precip Events Conditions
12:52 AM 24.1 °F 12.5 °F 12.0 °F 60% 29.96 in 10.0 mi West 12.7 mph 20.7 mph N/A   Clear
1:52 AM 24.1 °F 12.5 °F 12.9 °F 62% 29.96 in 10.0 mi West 12.7 mph - N/A   Clear
2:52 AM 24.1 °F 15.2 °F 12.9 °F 62% 29.96 in 10.0 mi WNW 8.1 mph - N/A   Clear
3:52 AM 25.0 °F 12.6 °F 14.0 °F 63% 29.95 in 10.0 mi West 15.0 mph - N/A   Clear
4:52 AM 24.1 °F 14.4 °F 14.0 °F 65% 29.95 in 10.0 mi West 9.2 mph - N/A   Clear
5:52 AM 21.9 °F 14.5 °F 12.9 °F 68% 29.96 in 10.0 mi NW 5.8 mph - N/A   Partly Cloudy
6:52 AM 19.0 °F - 12.9 °F 77% 29.96 in 10.0 mi Calm Calm - N/A   Scattered Clouds
7:52 AM 28.9 °F 21.1 °F 18.0 °F 64% 29.97 in 10.0 mi WSW 8.1 mph - N/A   Overcast
8:52 AM 30.0 °F 22.4 °F 18.0 °F 61% 29.95 in 10.0 mi South 8.1 mph - N/A   Overcast
9:52 AM 30.9 °F 21.7 °F 18.0 °F 59% 29.94 in 10.0 mi SW 11.5 mph 18.4 mph N/A   Clear
10:52 AM 33.1 °F 26.9 °F 19.0 °F 56% 29.91 in 10.0 mi WSW 6.9 mph - N/A   Clear
11:52 AM 36.0 °F 26.0 °F 19.0 °F 50% 29.86 in 10.0 mi West 17.3 mph 27.6 mph N/A   Scattered Clouds
12:52 PM 36.0 °F 28.5 °F 19.0 °F 50% 29.83 in 10.0 mi WSW 10.4 mph 24.2 mph N/A   Clear
1:52 PM 37.0 °F 31.6 °F 19.9 °F 50% 29.82 in 10.0 mi Variable 6.9 mph 17.3 mph N/A   Clear
2:52 PM 37.0 °F 31.0 °F 21.0 °F 52% 29.81 in 10.0 mi SW 8.1 mph - N/A   Clear
3:52 PM 37.0 °F 31.6 °F 19.9 °F 50% 29.83 in 10.0 mi SW 6.9 mph - N/A   Clear
4:52 PM 35.1 °F 31.0 °F 19.9 °F 54% 29.82 in 10.0 mi Variable 4.6 mph - N/A   Clear
5:52 PM 33.1 °F - 19.0 °F 56% 29.83 in 10.0 mi Calm Calm - N/A   Clear
6:52 PM 34.0 °F 27.2 °F 19.0 °F 54% 29.85 in 10.0 mi WSW 8.1 mph - N/A   Clear
8:52 PM 33.1 °F 30.0 °F 18.0 °F 54% 29.84 in 10.0 mi Variable 3.5 mph - N/A   Clear
9:52 PM 33.1 °F 26.9 °F 17.1 °F 52% 29.85 in 10.0 mi WSW 6.9 mph - N/A   Mostly Cloudy
10:52 PM 34.0 °F 26.0 °F 18.0 °F 52% 29.85 in 10.0 mi West 10.4 mph 17.3 mph N/A   Overcast
11:52 PM 34.0 °F 24.6 °F 17.1 °F 50% 29.84 in 10.0 mi West 13.8 mph - N/A   Partly Cloudy